Lid_Strength_Index
8 8 7 6 5 5 3 2 2 2 1 1 1 1 1 1 1 1 2 2 2 2 2 1 1 1 1 1 1 1 2 2
8 8 8 7 5 5 6 4 3 2 1 1 1 1 1 1 1 1 1 2 2 2 2 2 2 2 2 2 2 2 2 2
9 9 9 8 6 8 7 8 6 5 2 1 1 1 1 1 1 1 1 1 2 2 3 2 2 2 3 2 2 3 3 3
12 10 10 9 8 9 9 9 8 7 7 8 8 7 3 1 1 1 1 1 1 2 3 3 3 3 2 2 3 3 3 3
13 12 12 11 10 10 11 10 9 10 10 10 10 9 9 8 7 6 5 3 2 2 2 2 3 3 3 3 3 3 3 3
14 13 13 12 11 11 12 12 12 12 12 11 11 10 10 10 10 9 9 8 7 7 5 3 3 3 3 3 3 3 4 4
14 14 14 13 13 12 13 13 13 13 13 12 12 12 12 12 11 10 11 10 10 10 10 9 8 11 11 10 7 6 5 5
15 15 15 15 14 14 14 13 13 14 13 14 14 13 13 13 13 13 12 12 12 11 12 11 11 11 11 12 11 10 10 10
16 16 16 15 15 14 14 15 15 15 15 15 15 15 15 14 14 14 13 14 13 13 13 13 12 12 12 13 12 12 13 13
15 15 16 16 16 16 16 16 17 16 16 16 15 15 15 15 15 14 14 14 14 14 14 14 14 13 13 13 14 14 14 14
13 14 16 16 16 16 17 17 18 17 17 16 16 16 15 15 15 15 15 15 14 15 15 15 15 13 13 13 14 15 15 15
14 15 16 15 15 15 16 17 17 17 16 16 16 16 15 15 15 15 14 15 15 15 15 14 14 14 13 12 14 15 15 15
15 16 16 16 16 16 17 16 16 16 15 15 15 14 13 12 13 13 12 13 13 13 13 12 12 12 11 11 10 10 12 12
17 17 17 18 17 17 17 17 17 15 15 15 14 14 13 13 13 13 13 13 14 14 15 14 13 13 12 11 10 10 12 12
16 18 20 20 18 19 18 19 18 18 17 15 15 15 14 13 13 13 13 14 14 14 15 14 14 13 12 11 11 11 11 11
16 21 22 22 22 22 21 20 19 18 17 16 16 15 14 13 14 13 13 14 15 15 15 16 15 14 12 10 10 10 11 12
19 23 24 25 25 23 23 22 21 17 17 16 15 14 14 14 14 12 12 12 13 12 14 14 13 13 12 11 11 12 10 11
24 25 26 26 24 25 24 24 22 20 19 15 15 14 14 14 15 16 15 13 14 13 14 13 13 13 13 13 13 13 15 16
27 27 28 28 26 27 26 26 22 19 22 16 14 15 15 15 15 16 17 18 19 17 15 15 14 14 14 15 16 19 19 19
29 29 29 28 26 29 28 26 21 15 21 20 15 15 15 15 16 17 18 19 21 21 17 19 17 16 16 17 22 22 21 21